Location: Coupvray
(48.8929°N, 2.7967°E)
Time: 08:33:46
(UTC+00:00)

Meteor 1-25 Rocket - Pass Details

Date: 14 July 2020
Orbit: 837 x 890 km, 81.2° (Epoch: 14 August)

Event Time Altitude Azimuth Distance (km) Brightness Sun altitude
Exits shadow 00:47:43 32° 183° (S) 1,407 4.8 -18.5°
Maximum altitude 00:50:24 81° 100° (E) 860 4.2 -18.4°
Drops below altitude 10° 00:55:59 10° 14° (NNE) 2,467 7.9 -18.2°
Sets 00:58:24 0° 13° (NNE) 3,404 9.1 -18.1°
